Notices

What's New in latest Release from April 7th, 2021:

- Updated Glossary, including Speed of Maximum Gust, and Total Hourly Precipitation

- Updated national and regional climate services offices contacts and prices information

- Addition of station inventory lists for 1981-2010, 1971-2000, and 1961-1990 Normals.

If you haven't already, please take our survey and provide feedback about our website: https://eccc.sondage-survey.ca/f/LanguageSelection.aspx?s=442ca660-fcf1-47c0-95a9-59707d6fd709

Hourly Data Report for November 11, 2019

SHEARWATER RCS
NOVA SCOTIA
Current Station Operator: ECCC - MSC

44°37'47.000" N
63°30'48.000" W
24.00 m
8205092
71264
AAW

Download Data

Hourly Data (November 2019)
Hourly Data Report for November 11, 2019
TIME
LST
Temp Definition
°C
Dew Point Definition
°C
Rel Hum Definition
%
Precip. Amount Definition
mm

Wind Dir Definition
10's deg

Wind Spd Definition
km/h
Visibility Definition
km
Stn Press Definition
kPa
Hmdx Definition


Wind Chill Definition


Weather Definition


00:00 9.0 5.6 79 0.0 20 12   101.27     LegendNANA
01:00 9.5 5.7 77 0.0 21 16   101.24     LegendNANA
02:00 9.9 6.2 78 0.0 22 18   101.26     LegendNANA
03:00 9.1 5.2 76 0.0 24 11   101.28     LegendNANA
04:00 9.0 4.9 76 0.0 25 9   101.26     LegendNANA
05:00 8.8 5.0 77 0.0 24 9   101.32     LegendNANA
06:00 7.8 4.6 80 0.0 22 7   101.34     LegendNANA
07:00 7.5 4.6 82 0.0 23 5   101.41     LegendNANA
08:00 7.5 4.9 84 0.0 26 3   101.50     LegendNANA
09:00 8.5 5.2 80 0.0 26 4   101.57     LegendNANA
10:00 9.2 5.4 77 0.0 25 8   101.64     LegendNANA
11:00 9.7 4.9 72 0.0 27 9   101.65     LegendNANA
12:00 10.8 4.2 64 0.0 29 10   101.61     LegendNANA
13:00 11.5 2.4 54 0.0 30 13   101.63     LegendNANA
14:00 10.3 2.5 58 0.0 31 13   101.69     LegendNANA
15:00 9.8 2.0 58 0.0 32 12   101.82     LegendNANA
16:00 9.1 1.7 60 0.0 35 10   101.88     LegendNANA
17:00 6.7 1.2 68 0.0 2 11   101.94     LegendNANA
18:00 5.4 0.5 71 0.0 2 11   102.00     LegendNANA
19:00 4.7 0.7 76 0.0 3 13   102.09     LegendNANA
20:00 4.1 1.2 82 0.0 4 16   102.11     LegendNANA
21:00 3.8 1.0 82 0.0 4 16   102.13     LegendNANA
22:00 3.3 0.4 81 0.0 7 12   102.14     LegendNANA
23:00 3.3 0.3 81 0.0 7 9   102.15     LegendNANA

Notes on Data Quality.

Legend

  • E = Estimated
  • M = Missing
  • NA = Not Available*
  • [empty] = Indicates an unobserved value
Date modified: